W8WLC-15 Weather Reports


Display with metric or nautical units.
time (UTC)temp
F
wind
direction
speed
MPH
gust
MPH
rain 1hr
in
rain 24hr
in
rain mn
in
humidity
%
barometer
mb
20210926212331 67 0 0.0 3.0 0.00 0.26 0.02 61 1007.5
20210926211331 67 262 1.0 3.0 0.00 0.26 0.02 59 1007.5
20210926210331 68 265 2.0 7.0 0.00 0.26 0.02 57 1007.4
20210926205331 70 262 2.0 8.0 0.00 0.26 0.02 54 1007.2
20210926204331 70 0 0.0 3.0 0.00 0.26 0.02 63 1007.3
20210926203331 70 0 0.0 3.0 0.00 0.26 0.02 61 1007.4
20210926202331 68 0 0.0 4.0 0.00 0.26 0.02 63 1007.4
20210926201331 67 0 0.0 3.0 0.00 0.26 0.02 68 1007.5
20210926200331 67 0 0.0 4.0 0.00 0.26 0.02 68 1007.5
20210926195331 67 0 0.0 3.0 0.00 0.26 0.02 65 1007.7
20210926194331 67 0 0.0 5.0 0.00 0.26 0.02 69 1007.7
20210926193331 67 0 0.0 6.0 0.00 0.26 0.02 67 1007.9
20210926192331 68 0 0.0 5.0 0.00 0.26 0.02 69 1007.9
20210926191331 68 0 0.0 3.0 0.00 0.26 0.02 66 1008.1
20210926190331 67 234 1.0 3.0 0.00 0.26 0.02 65 1008.2
20210926185331 67 0 0.0 5.0 0.00 0.27 0.02 70 1008.3
20210926184331 66 0 0.0 5.0 0.00 0.27 0.02 68 1008.4
20210926183331 65 236 1.0 5.0 0.00 0.27 0.02 69 1008.5
20210926182331 65 0 0.0 6.0 0.00 0.27 0.02 74 1008.6
20210926181331 64 0 0.0 5.0 0.00 0.27 0.02 75 1008.8
20210926180331 63 0 0.0 6.0 0.00 0.27 0.02 79 1008.9
20210926175331 60 186 1.0 4.0 0.00 0.27 0.02 84 1009.1
20210926174331 58 0 0.0 2.0 0.00 0.27 0.02 88 1009.1
20210926173331 56 0 0.0 2.0 0.00 0.27 0.02 90 1009.4
20210926172332 56 0 0.0 2.0 0.00 0.27 0.02 89 1009.6
20210926171331 55 0 0.0 0.0 0.00 0.27 0.02 91 1009.8
20210926170331 55 0 0.0 2.0 0.01 0.27 0.02 92 1009.9
20210926165331 55 0 0.0 1.0 0.01 0.27 0.02 94 1010.0
20210926164331 54 0 0.0 2.0 0.01 0.27 0.02 95 1010.1
20210926163331 53 0 0.0 3.0 0.01 0.27 0.02 94 1010.3
20210926162332 53 0 0.0 3.0 0.01 0.27 0.02 94 1010.3
20210926161335 53 262 1.0 4.0 0.01 0.27 0.02 94 1010.5
20210926160335 53 261 2.0 6.0 0.00 0.26 0.01 92 1010.7
20210926155331 54 260 2.0 4.0 0.00 0.26 0.01 92 1010.7
20210926154336 53 256 1.0 8.0 0.00 0.26 0.01 92 1010.6
20210926153332 53 264 2.0 10.0 0.00 0.26 0.01 92 1010.8
20210926152331 53 265 2.0 7.0 0.00 0.26 0.01 93 1010.9
20210926151331 53 261 1.0 6.0 0.00 0.26 0.01 94 1010.8
20210926150332 53 261 1.0 6.0 0.00 0.26 0.01 95 1010.8
20210926145331 52 260 2.0 5.0 0.00 0.26 0.01 95 1010.8
20210926144331 52 269 1.0 6.0 0.00 0.26 0.01 95 1010.7
20210926143331 52 259 1.0 4.0 0.00 0.26 0.01 97 1010.7
20210926142331 52 272 1.0 4.0 0.00 0.26 0.01 97 1010.7
20210926141331 51 0 0.0 3.0 0.00 0.26 0.01 97 1010.5
20210926140331 51 0 0.0 3.0 0.00 0.26 0.01 97 1010.6
20210926135331 51 0 0.0 2.0 0.00 0.26 0.01 97 1010.5
20210926134330 51 0 0.0 3.0 0.00 0.26 0.01 98 1010.4
20210926133331 50 0 0.0 2.0 0.00 0.26 0.01 98 1010.4
20210926132331 50 0 0.0 3.0 0.00 0.26 0.01 98 1010.4
20210926131331 50 0 0.0 3.0 0.00 0.26 0.01 99 1010.6
20210926130331 49 273 1.0 2.0 0.00 0.26 0.01 99 1010.5
20210926125331 49 0 0.0 3.0 0.00 0.26 0.01 99 1010.6
20210926124331 49 0 0.0 2.0 0.00 0.26 0.01 99 1010.4
20210926123331 48 0 0.0 2.0 0.00 0.26 0.01 99 1010.4
20210926122330 48 0 0.0 2.0 0.00 0.26 0.01 99 1010.5
20210926121331 47 0 0.0 2.0 0.00 0.26 0.01 99 1010.4
20210926120331 47 0 0.0 0.0 0.00 0.26 0.01 99 1010.5
20210926115331 47 0 0.0 0.0 0.00 0.26 0.01 99 1010.4
20210926114331 47 0 0.0 0.0 0.00 0.26 0.01 99 1010.5
20210926113330 46 0 0.0 0.0 0.00 0.26 0.01 98 1010.6
20210926112331 46 0 0.0 0.0 0.00 0.27 0.01 99 1010.4
20210926111332 46 0 0.0 0.0 0.00 0.27 0.01 98 1010.3
20210926110331 46 0 0.0 0.0 0.00 0.28 0.01 99 1010.3
20210926105331 46 0 0.0 0.0 0.00 0.28 0.01 98 1010.3
20210926104331 46 0 0.0 0.0 0.00 0.28 0.01 98 1010.4
20210926103331 45 0 0.0 0.0 0.00 0.28 0.01 98 1010.2
20210926102331 46 0 0.0 0.0 0.00 0.28 0.01 98 1010.4
20210926101331 46 0 0.0 0.0 0.00 0.28 0.01 98 1010.3
20210926100331 46 0 0.0 0.0 0.00 0.28 0.01 98 1010.2
20210926095331 46 0 0.0 0.0 0.00 0.28 0.01 98 1010.2
20210926094331 46 0 0.0 0.0 0.00 0.29 0.01 98 1010.1
20210926093331 45 0 0.0 0.0 0.00 0.29 0.01 98 1010.0
20210926092331 45 0 0.0 0.0 0.00 0.29 0.01 98 1010.0
20210926091331 45 0 0.0 0.0 0.00 0.29 0.01 98 1010.0
20210926090331 45 0 0.0 0.0 0.00 0.29 0.01 98 1010.2
20210926085331 45 0 0.0 0.0 0.00 0.29 0.01 98 1010.0
20210926084331 45 0 0.0 0.0 0.00 0.29 0.01 98 1010.0
20210926083331 45 0 0.0 1.0 0.00 0.30 0.01 98 1010.0
20210926082331 46 0 0.0 1.0 0.00 0.31 0.01 98 1010.0
20210926081331 46 0 0.0 2.0 0.00 0.31 0.01 98 1010.0
20210926080331 46 0 0.0 0.0 0.00 0.32 0.01 98 1010.0
20210926075331 46 0 0.0 0.0 0.00 0.34 0.01 98 1010.0
20210926074331 46 0 0.0 0.0 0.00 0.34 0.01 98 1010.0
20210926073330 46 0 0.0 1.0 0.00 0.34 0.01 98 1010.1
20210926072331 46 0 0.0 1.0 0.00 0.34 0.01 98 1010.2
20210926071331 46 0 0.0 2.0 0.00 0.34 0.01 97 1010.3
20210926070331 46 0 0.0 0.0 0.00 0.34 0.01 97 1010.4
20210926065331 46 0 0.0 2.0 0.00 0.34 0.01 98 1010.4
20210926064331 46 0 0.0 2.0 0.00 0.34 0.01 98 1010.5
20210926063330 47 0 0.0 0.0 0.00 0.34 0.01 97 1010.4
20210926062330 47 0 0.0 0.0 0.00 0.34 0.01 97 1010.4
20210926061330 47 0 0.0 0.0 0.00 0.34 0.01 97 1010.5
20210926060330 47 0 0.0 1.0 0.00 0.34 0.01 97 1010.5
20210926055331 47 0 0.0 1.0 0.01 0.34 0.01 97 1010.5
20210926054330 47 0 0.0 0.0 0.01 0.34 0.01 97 1010.6
20210926053331 47 0 0.0 0.0 0.01 0.34 0.01 97 1010.5
20210926052331 47 0 0.0 1.0 0.01 0.34 0.01 97 1010.6
20210926051331 47 0 0.0 3.0 0.01 0.34 0.01 97 1010.5
20210926050330 47 0 0.0 2.0 0.01 0.34 0.01 97 1010.5
20210926045331 47 0 0.0 1.0 0.00 0.33 0.00 97 1010.4
20210926044331 47 0 0.0 0.0 0.00 0.33 0.00 97 1010.4
20210926043330 47 0 0.0 0.0 0.00 0.33 0.00 97 1010.3
20210926042331 47 0 0.0 0.0 0.00 0.33 0.00 97 1010.3
20210926041330 47 0 0.0 0.0 0.00 0.33 0.00 97 1010.2
20210926040331 47 0 0.0 2.0 0.06 0.33 0.33 96 1010.3
20210926035331 48 0 0.0 3.0 0.13 0.33 0.33 96 1010.4
20210926034331 48 266 1.0 8.0 0.16 0.33 0.33 96 1010.3
20210926033330 48 289 5.0 7.0 0.19 0.33 0.33 96 1010.3
20210926032330 48 0 0.0 1.0 0.24 0.33 0.33 96 1009.9
20210926031331 48 0 0.0 8.0 0.24 0.33 0.33 96 1009.7
20210926030330 48 281 4.0 10.0 0.18 0.27 0.27 96 1010.6
20210926025330 49 307 7.0 11.0 0.11 0.20 0.20 95 1010.9
20210926024331 49 328 6.0 12.0 0.08 0.17 0.17 95 1010.7
20210926023331 49 334 5.0 21.0 0.05 0.14 0.14 92 1010.4
20210926022331 51 329 4.0 10.0 0.00 0.09 0.09 89 1010.2
20210926021330 50 256 1.0 3.0 0.00 0.09 0.09 88 1009.2
20210926020331 50 0 0.0 0.0 0.00 0.09 0.09 88 1009.1
20210926015330 50 0 0.0 0.0 0.00 0.09 0.09 88 1009.1
20210926014330 51 0 0.0 2.0 0.00 0.09 0.09 87 1009.2
20210926013330 51 0 0.0 0.0 0.00 0.09 0.09 87 1009.1
20210926012331 51 0 0.0 2.0 0.00 0.09 0.09 87 1009.1
20210926011331 51 0 0.0 0.0 0.00 0.09 0.09 87 1009.3
20210926010330 51 0 0.0 2.0 0.00 0.09 0.09 86 1009.1
20210926005330 52 0 0.0 2.0 0.00 0.09 0.09 86 1009.1
20210926004330 52 0 0.0 0.0 0.00 0.09 0.09 86 1009.2
20210926003330 52 0 0.0 2.0 0.00 0.09 0.09 86 1009.2
20210926002330 52 0 0.0 4.0 0.00 0.09 0.09 86 1009.2
20210926001330 52 263 1.0 8.0 0.00 0.09 0.09 86 1009.2
20210926000331 52 261 1.0 4.0 0.00 0.09 0.09 87 1009.1
20210925235330 52 265 2.0 7.0 0.00 0.09 0.09 87 1009.1
20210925234331 52 0 0.0 8.0 0.00 0.09 0.09 88 1009.2
20210925233330 53 266 2.0 8.0 0.00 0.09 0.09 86 1009.2
20210925232330 53 269 4.0 8.0 0.00 0.09 0.09 84 1009.1
20210925231330 53 261 1.0 7.0 0.00 0.09 0.09 83 1009.0
20210925230330 53 263 2.0 7.0 0.00 0.09 0.09 82 1008.9
20210925225330 54 267 5.0 13.0 0.00 0.09 0.09 81 1009.0
20210925224330 54 270 7.0 20.0 0.00 0.09 0.09 80 1009.0
20210925223330 56 275 12.0 19.0 0.00 0.09 0.09 75 1008.9
20210925222330 56 277 6.0 12.0 0.00 0.09 0.09 73 1008.7
20210925221330 56 275 8.0 14.0 0.00 0.09 0.09 73 1008.6
20210925220330 57 278 8.0 16.0 0.00 0.09 0.09 72 1008.5
20210925215331 57 273 4.0 9.0 0.00 0.09 0.09 76 1008.3
20210925214330 57 278 5.0 10.0 0.00 0.09 0.09 76 1008.3
20210925213330 58 268 4.0 10.0 0.00 0.09 0.09 72 1008.3